period_start,C,m1,H,J0,J1,J2,J3,J4,J5,JA,JB,JC,JD,JJ,JK,JN,#
2014-07-11 00:03:35,0.03,0.23,0.00,34.77,39.81,42.51,9.17,36.82,1016.37,1982.58,3374.75,3153.14,3421.32,500.02,477.53,7.66,0000 0000 0000 0000 000000
2014-07-11 00:08:36,-0.00,0.23,0.00,34.75,39.77,42.42,9.22,37.00,1016.15,1982.94,3374.99,3153.83,3421.95,500.25,477.70,7.70,0000 0000 0000 0000 000000
2014-07-11 00:13:37,-0.00,0.23,0.00,34.66,39.72,42.38,9.25,37.05,1016.51,1982.99,3375.14,3154.00,3422.08,500.11,477.84,7.74,0000 0000 0000 0000 000000
2014-07-11 00:18:38,-0.03,0.23,0.00,34.64,39.67,42.37,9.17,36.73,1016.62,1982.99,3375.80,3154.21,3422.62,499.90,477.76,7.78,0000 0000 0000 0000 000000
2014-07-11 00:23:40,-0.01,0.23,0.00,34.66,39.63,42.32,9.11,36.77,1016.61,1983.06,3375.98,3154.70,3422.93,499.49,477.38,7.82,0000 0000 0000 0000 000000
2014-07-11 00:28:40,0.01,0.23,0.00,34.68,39.59,42.26,9.22,36.83,1016.59,1983.20,3375.99,3154.97,3422.99,499.82,477.72,7.87,0000 0000 0000 0000 000000
2014-07-11 00:33:42,0.04,0.23,0.00,34.70,39.55,42.25,9.23,37.20,1016.62,1983.65,3376.09,3154.99,3423.12,499.94,477.63,7.91,0000 0000 0000 0000 000000
2014-07-11 00:38:43,0.03,0.23,0.00,34.73,39.52,42.18,9.26,37.05,1016.62,1983.91,3376.18,3155.00,3423.23,500.04,477.91,7.95,0000 0000 0000 0000 000000
2014-07-11 00:43:44,0.01,0.23,0.00,34.75,39.49,42.18,9.21,37.08,1016.62,1983.97,3376.20,3155.00,3423.04,500.26,478.02,7.99,0000 0000 0000 0000 000000
2014-07-11 00:48:45,-0.02,0.23,0.00,34.78,39.46,42.15,9.13,36.87,1016.67,1983.99,3376.63,3155.05,3423.41,499.70,477.39,8.03,0000 0000 0000 0000 000000
2014-07-11 00:53:46,-0.01,0.23,0.00,34.81,39.44,42.12,9.21,36.73,1016.79,1983.99,3376.93,3155.25,3423.78,500.07,477.69,8.07,0000 0000 0000 0000 000000
2014-07-11 00:58:48,-0.01,0.23,0.00,34.86,39.43,42.09,9.22,36.86,1017.00,1983.99,3376.99,3155.80,3423.98,500.24,477.85,8.12,0000 0000 0000 0000 000000
2014-07-11 01:03:49,0.00,0.23,0.00,34.88,39.41,42.05,9.16,36.91,1016.84,1983.99,3377.00,3155.95,3423.99,500.16,477.93,8.16,0000 0000 0000 0000 000000
2014-07-11 01:08:50,0.00,0.23,0.00,34.90,39.40,42.05,9.12,36.93,1016.73,1984.06,3377.05,3155.98,3423.99,499.67,477.27,8.20,0000 0000 0000 0000 000000
2014-07-11 01:13:52,0.00,0.23,0.00,34.92,39.39,42.03,9.17,36.97,1016.62,1984.07,3377.03,3155.99,3423.99,500.04,477.28,8.24,0000 0000 0000 0000 000000
2014-07-11 01:18:53,0.00,0.23,0.00,34.93,39.38,42.04,9.15,37.06,1016.64,1984.09,3377.02,3155.99,3423.99,500.21,477.53,8.28,0000 0000 0000 0000 000000
2014-07-11 01:23:54,0.01,0.23,0.00,34.95,39.38,42.01,9.19,36.83,1016.70,1984.17,3377.02,3155.99,3424.00,499.80,477.35,8.33,0000 0000 0000 0000 000000
2014-07-11 01:28:55,-0.01,0.23,0.00,34.97,39.38,41.99,9.10,36.72,1016.82,1984.12,3377.01,3155.99,3424.00,499.90,477.59,8.37,0000 0000 0000 0000 000000
2014-07-11 01:33:56,0.00,0.23,0.00,35.00,39.38,41.96,9.14,36.66,1017.07,1984.17,3377.02,3155.99,3424.00,499.81,477.49,8.41,0000 0000 0000 0000 000000
2014-07-11 01:38:57,0.01,0.23,0.00,34.99,39.38,41.94,9.16,36.60,1017.11,1984.28,3377.06,3155.99,3424.00,499.85,477.58,8.45,0000 0000 0000 0000 000000
2014-07-11 01:43:58,-0.00,0.23,0.00,34.92,39.38,41.91,9.20,36.49,1017.32,1984.25,3377.07,3155.99,3424.02,500.09,477.89,8.49,0000 0000 0000 0000 000000
2014-07-11 01:48:59,-0.00,0.23,0.00,34.71,39.38,41.78,9.20,36.48,1017.54,1984.25,3377.07,3155.99,3424.01,500.42,478.39,8.53,0000 0000 0000 0000 000000
2014-07-11 01:54:00,0.00,0.23,0.00,34.48,39.37,41.76,9.16,36.47,1017.59,1984.26,3377.03,3155.99,3424.00,499.55,478.19,8.58,0000 0000 0000 0000 000000
2014-07-11 01:59:02,0.02,0.23,0.00,34.25,39.35,41.77,9.23,36.58,1017.59,1984.37,3377.02,3155.99,3424.03,500.11,479.01,8.62,0000 0000 0000 0000 000000
2014-07-11 02:04:03,0.02,0.23,0.00,34.05,39.34,41.88,9.26,36.52,1017.59,1984.69,3377.04,3156.02,3424.19,500.01,479.26,8.66,0000 0000 0000 0000 000000
2014-07-11 02:09:04,-0.00,0.23,0.00,33.87,39.31,41.89,9.23,36.66,1017.55,1984.90,3377.19,3156.25,3424.67,499.77,479.37,8.70,0000 0000 0000 0000 000000
2014-07-11 02:14:05,-0.02,0.23,0.00,33.68,39.28,41.83,9.29,36.92,1017.59,1984.99,3377.63,3156.85,3424.97,500.00,479.86,8.74,0000 0000 0000 0000 000000
2014-07-11 02:19:07,-0.00,0.23,0.00,33.51,39.24,41.78,9.19,36.88,1017.59,1984.99,3377.90,3156.99,3425.02,500.03,480.00,8.79,0000 0000 0000 0000 000000
2014-07-11 02:24:08,-0.01,0.23,0.00,33.34,39.19,41.74,9.23,36.82,1017.59,1985.03,3377.97,3157.03,3425.39,499.86,480.23,8.83,0000 0000 0000 0000 000000
2014-07-11 02:29:09,0.02,0.23,0.00,33.16,39.13,41.66,9.28,37.06,1017.60,1985.33,3378.00,3157.61,3425.92,499.77,480.36,8.87,0000 0000 0000 0000 000000
2014-07-11 02:34:10,0.04,0.23,0.00,33.01,39.07,41.54,9.40,37.06,1017.61,1985.91,3378.17,3157.99,3426.12,499.99,480.84,8.91,0000 0000 0000 0000 000000
2014-07-11 02:39:11,-0.04,0.23,0.00,32.87,39.00,41.40,9.25,37.08,1017.63,1985.99,3378.83,3158.38,3426.90,499.69,481.16,8.95,0000 0000 0000 0000 000000
2014-07-11 02:44:12,0.02,0.23,0.00,32.73,38.92,41.25,9.29,37.02,1017.81,1986.23,3379.06,3158.98,3427.33,500.29,481.73,9.00,0000 0000 0000 0000 000000
2014-07-11 02:49:13,0.01,0.23,0.00,32.58,38.84,41.14,9.37,37.27,1018.01,1986.90,3379.71,3159.59,3427.97,500.10,481.85,9.04,0000 0000 0000 0000 000000
2014-07-11 02:54:14,-0.02,0.23,0.00,32.41,38.75,41.03,9.36,37.31,1018.08,1986.99,3380.02,3160.03,3428.58,500.23,482.30,9.08,0000 0000 0000 0000 000000
2014-07-11 02:59:15,0.03,0.23,0.00,32.25,38.66,41.01,9.31,36.86,1018.08,1987.50,3380.77,3160.84,3429.22,500.35,482.66,9.12,0000 0000 0000 0000 000000
2014-07-11 03:04:17,-0.02,0.23,0.00,32.10,38.56,40.91,9.34,37.21,1018.07,1987.98,3381.14,3161.37,3429.99,499.89,482.50,9.16,0000 0000 0000 0000 000000
2014-07-11 03:09:17,0.02,0.23,0.00,31.98,38.46,40.78,9.33,36.99,1017.88,1988.28,3381.86,3162.09,3430.77,499.84,482.46,9.20,0000 0000 0000 0000 000000
2014-07-11 03:14:19,0.00,0.23,0.00,31.88,38.36,40.62,9.32,37.02,1017.82,1988.95,3382.31,3162.91,3431.61,500.20,483.05,9.25,0000 0000 0000 0000 000000
2014-07-11 03:19:20,-0.03,0.23,0.00,31.77,38.26,40.51,9.39,37.23,1017.76,1989.06,3382.96,3163.56,3432.16,500.36,483.44,9.29,0000 0000 0000 0000 000000
2014-07-11 03:24:20,0.05,0.23,0.00,31.66,38.15,40.45,9.30,37.23,1017.75,1989.81,3383.61,3164.16,3432.97,499.65,482.83,9.33,0000 0000 0000 0000 000000
2014-07-11 03:29:22,-0.03,0.23,0.00,31.58,38.04,40.27,9.37,36.92,1017.76,1990.11,3384.18,3165.01,3433.85,499.52,482.86,9.37,0000 0000 0000 0000 000000
2014-07-11 03:34:23,0.03,0.23,0.00,31.49,37.94,40.12,9.37,36.91,1017.71,1990.86,3384.97,3165.89,3434.71,500.23,483.62,9.41,0000 0000 0000 0000 000000
2014-07-11 03:39:24,-0.04,0.23,0.00,31.43,37.84,40.02,9.36,36.89,1017.62,1991.11,3385.72,3166.66,3435.58,500.02,483.62,9.45,0000 0000 0000 0000 000000
2014-07-11 03:44:25,0.03,0.23,0.00,31.36,37.74,39.89,9.35,36.77,1017.66,1991.84,3386.40,3167.49,3436.44,499.67,483.23,9.50,0000 0000 0000 0000 000000
2014-07-11 03:49:26,-0.01,0.23,0.00,31.28,37.64,39.77,9.31,36.90,1017.78,1992.03,3387.00,3168.08,3437.13,499.80,483.53,9.54,0000 0000 0000 0000 000000
2014-07-11 03:54:28,0.03,0.23,0.00,31.24,37.55,39.66,9.31,36.77,1018.00,1992.70,3387.75,3168.88,3437.93,499.76,483.40,9.58,0000 0000 0000 0000 000000
2014-07-11 03:59:29,-0.04,0.23,0.00,31.19,37.45,39.52,9.32,37.13,1018.05,1993.00,3388.24,3169.45,3438.66,499.87,483.94,9.62,0000 0000 0000 0000 000000
2014-07-11 04:04:30,0.05,0.23,0.00,31.14,37.36,39.39,9.33,36.84,1018.06,1993.55,3388.95,3170.12,3439.46,499.57,483.73,9.66,0000 0000 0000 0000 000000
2014-07-11 04:09:32,-0.02,0.23,0.00,31.12,37.27,39.35,9.30,36.88,1018.07,1993.98,3389.59,3170.92,3440.11,499.18,483.73,9.71,0000 0000 0000 0000 000000
2014-07-11 04:14:32,-0.01,0.23,0.00,31.10,37.18,39.21,9.31,36.65,1017.98,1994.27,3390.07,3171.56,3440.91,500.00,484.13,9.75,0000 0000 0000 0000 000000
2014-07-11 04:19:34,0.03,0.23,0.00,31.05,37.09,39.14,9.34,36.76,1017.98,1994.93,3390.83,3172.13,3441.59,499.72,483.96,9.79,0000 0000 0000 0000 000000
2014-07-11 04:24:35,-0.02,0.23,0.00,31.00,37.01,39.08,9.31,36.61,1017.90,1995.10,3391.07,3172.92,3442.30,500.23,484.56,9.83,0000 0000 0000 0000 000000
2014-07-11 04:29:36,0.04,0.23,0.00,30.90,36.92,39.06,9.35,36.85,1017.72,1995.77,3391.83,3173.55,3442.97,500.06,484.47,9.87,0000 0000 0000 0000 000000
2014-07-11 04:34:38,-0.01,0.23,0.00,30.84,36.84,39.02,9.38,36.85,1017.62,1995.99,3392.05,3174.01,3443.66,500.31,484.68,9.92,0000 0000 0000 0000 000000
2014-07-11 04:39:39,-0.01,0.23,0.00,30.81,36.76,38.93,9.34,36.78,1017.60,1996.16,3392.71,3174.66,3444.07,500.03,484.50,9.96,0000 0000 0000 0000 000000
2014-07-11 04:44:40,0.04,0.24,0.00,30.79,36.69,38.87,9.37,36.73,1017.59,1996.88,3393.17,3175.24,3444.88,499.84,484.40,10.00,0000 0000 0000 0000 000000
2014-07-11 04:49:41,-0.04,0.23,0.00,30.75,36.62,38.85,9.35,36.92,1017.60,1997.02,3393.90,3175.95,3445.53,500.23,484.66,10.04,0000 0000 0000 0000 000000
2014-07-11 04:54:42,0.05,0.23,0.00,30.71,36.55,38.81,9.38,36.90,1017.60,1997.53,3394.10,3176.29,3445.99,500.16,484.76,10.08,0000 0000 0000 0000 000000
2014-07-11 04:59:43,-0.01,0.24,0.00,30.66,36.48,38.77,9.38,36.67,1017.59,1997.96,3394.85,3176.95,3446.69,500.04,484.68,10.12,0000 0000 0000 0000 000000
2014-07-11 05:04:44,-0.01,0.23,0.00,30.58,36.41,38.70,9.31,36.52,1017.60,1998.01,3395.02,3177.31,3447.05,499.75,484.57,10.17,0000 0000 0000 0000 000000
2014-07-11 05:09:45,0.04,0.23,0.00,30.52,36.33,38.65,9.37,36.65,1017.60,1998.57,3395.54,3177.96,3447.86,500.31,485.16,10.21,0000 0000 0000 0000 000000
2014-07-11 05:14:47,0.00,0.24,0.00,30.49,36.27,38.60,9.42,36.71,1017.61,1998.97,3395.98,3178.29,3448.06,500.31,485.18,10.25,0000 0000 0000 0000 000000
2014-07-11 05:19:48,-0.04,0.23,0.00,30.45,36.20,38.55,9.32,36.66,1017.64,1999.01,3396.32,3178.95,3448.81,499.65,484.67,10.29,0000 0000 0000 0000 000000
2014-07-11 05:24:49,0.03,0.24,0.00,30.41,36.14,38.48,9.36,36.42,1017.77,1999.46,3396.96,3179.37,3449.17,500.40,485.44,10.33,0000 0000 0000 0000 000000
2014-07-11 05:29:50,0.01,0.24,0.00,30.40,36.08,38.47,9.29,36.33,1017.95,1999.95,3397.15,3179.97,3449.92,499.77,485.03,10.38,0000 0000 0000 0000 000000
2014-07-11 05:34:51,-0.03,0.24,0.00,30.39,36.01,38.42,9.37,36.50,1017.98,1999.99,3397.84,3180.24,3450.23,499.94,485.17,10.42,0000 0000 0000 0000 000000
2014-07-11 05:39:52,0.01,0.23,0.00,30.36,35.96,38.35,9.26,36.49,1017.91,2000.22,3398.16,3180.92,3450.91,499.93,485.32,10.46,0000 0000 0000 0000 000000
2014-07-11 05:44:53,0.03,0.24,0.00,30.33,35.90,38.29,9.34,36.38,1017.96,2000.85,3398.85,3181.31,3451.35,499.76,485.09,10.50,0000 0000 0000 0000 000000
2014-07-11 05:49:55,-0.01,0.24,0.00,30.35,35.85,38.21,9.37,36.43,1017.97,2000.99,3399.00,3181.93,3451.96,499.77,485.07,10.54,0000 0000 0000 0000 000000
2014-07-11 05:54:56,-0.00,0.24,0.00,30.32,35.80,38.13,9.32,36.38,1017.79,2001.01,3399.21,3182.01,3452.02,499.76,484.94,10.58,0000 0000 0000 0000 000000
2014-07-11 05:59:58,0.00,0.24,0.00,30.32,35.75,38.06,9.37,36.23,1017.78,2001.30,3399.87,3182.54,3452.71,499.98,485.35,10.63,0000 0000 0000 0000 000000
2014-07-11 06:04:59,0.03,0.24,0.00,30.30,35.70,37.94,9.35,36.40,1017.80,2001.85,3399.99,3182.98,3452.99,500.11,485.52,10.67,0000 0000 0000 0000 000000
2014-07-11 06:10:00,-0.01,0.24,0.00,30.30,35.65,37.86,9.31,36.28,1017.72,2001.98,3400.15,3183.08,3453.24,500.09,485.34,10.71,0000 0000 0000 0000 000000
2014-07-11 06:15:01,-0.04,0.24,0.00,30.30,35.61,37.78,9.36,36.39,1017.63,2001.99,3400.84,3183.72,3453.89,499.94,485.31,10.75,0000 0000 0000 0000 000000
2014-07-11 06:20:02,-0.00,0.23,0.00,30.28,35.57,37.75,9.38,36.48,1017.61,2002.05,3400.99,3183.98,3454.00,500.18,485.61,10.79,0000 0000 0000 0000 000000
2014-07-11 06:25:03,0.05,0.24,0.00,30.27,35.53,37.71,9.40,36.42,1017.62,2002.56,3401.00,3184.01,3454.21,500.18,485.55,10.84,0000 0000 0000 0000 000000
2014-07-11 06:30:04,-0.01,0.24,0.00,30.25,35.49,37.69,9.36,36.54,1017.60,2002.95,3401.49,3184.53,3454.89,499.37,484.67,10.88,0000 0000 0000 0000 000000
2014-07-11 06:35:05,-0.01,0.24,0.00,30.20,35.46,37.66,9.35,36.32,1017.61,2002.99,3401.93,3184.96,3454.99,499.71,485.07,10.92,0000 0000 0000 0000 000000
2014-07-11 06:40:06,0.00,0.24,0.00,30.16,35.42,37.61,9.34,36.31,1017.61,2002.99,3401.99,3185.00,3455.07,500.25,485.63,10.96,0000 0000 0000 0000 000000
2014-07-11 06:45:07,-0.01,0.24,0.00,30.15,35.39,37.59,9.31,36.02,1017.61,2003.11,3402.07,3185.24,3455.70,500.00,485.49,11.00,0000 0000 0000 0000 000000
2014-07-11 06:50:08,0.04,0.24,0.00,30.15,35.36,37.57,9.29,35.98,1017.59,2003.53,3402.31,3185.79,3455.98,499.80,485.19,11.04,0000 0000 0000 0000 000000
2014-07-11 06:55:09,0.01,0.24,0.00,30.15,35.32,37.54,9.30,36.20,1017.61,2003.83,3402.75,3185.97,3455.99,499.66,485.38,11.09,0000 0000 0000 0000 000000
2014-07-11 07:00:10,0.00,0.24,0.00,30.15,35.29,37.51,9.36,36.13,1017.61,2003.97,3402.98,3185.99,3456.03,499.93,485.39,11.13,0000 0000 0000 0000 000000
2014-07-11 07:05:11,-0.00,0.24,0.00,30.15,35.26,37.47,9.37,37.02,1017.62,2003.99,3402.99,3186.02,3456.34,500.12,485.49,11.17,0000 0000 0000 0000 000000
2014-07-11 07:10:12,-0.03,0.24,0.00,30.13,35.24,37.45,9.36,37.73,1017.64,2003.99,3403.01,3186.43,3456.93,500.00,485.54,11.21,0000 0000 0000 0000 000000
2014-07-11 07:15:12,-0.01,0.24,0.00,30.13,35.21,37.42,9.33,37.62,1017.63,2004.01,3403.09,3186.90,3456.99,500.09,485.58,11.25,0000 0000 0000 0000 000000
2014-07-11 07:20:13,0.02,0.24,0.00,30.14,35.18,37.40,9.27,37.72,1017.70,2004.30,3403.65,3186.99,3457.08,499.69,485.21,11.30,0000 0000 0000 0000 000000
2014-07-11 07:25:14,-0.01,0.24,0.00,30.15,35.15,37.36,9.33,37.43,1017.68,2004.36,3403.85,3186.99,3457.22,500.19,485.76,11.34,0000 0000 0000 0000 000000
2014-07-11 07:30:16,0.03,0.24,0.00,30.16,35.13,37.35,9.41,37.31,1017.72,2004.75,3403.98,3187.10,3457.81,500.41,485.85,11.38,0000 0000 0000 0000 000000
2014-07-11 07:35:17,0.01,0.24,0.00,30.20,35.11,37.33,9.39,37.18,1017.69,2004.97,3403.99,3187.40,3457.97,500.08,485.57,11.42,0000 0000 0000 0000 000000
2014-07-11 07:40:18,-0.01,0.24,0.00,30.21,35.10,37.30,9.31,37.10,1017.74,2004.99,3404.00,3187.91,3457.99,499.81,485.25,11.46,0000 0000 0000 0000 000000
2014-07-11 07:45:19,0.00,0.24,0.00,30.23,35.07,37.28,9.32,36.68,1017.73,2004.99,3404.03,3187.97,3457.99,499.99,485.20,11.50,0000 0000 0000 0000 000000
2014-07-11 07:50:20,0.00,0.24,0.00,30.27,35.06,37.26,9.35,36.54,1017.90,2004.99,3404.06,3187.99,3458.03,499.84,485.24,11.55,0000 0000 0000 0000 000000
2014-07-11 07:55:21,-0.00,0.24,0.00,30.28,35.05,37.26,9.38,36.63,1018.02,2005.00,3404.23,3187.99,3458.13,500.05,485.38,11.59,0000 0000 0000 0000 000000
2014-07-11 08:00:22,-0.01,0.24,0.00,30.30,35.05,37.23,9.32,36.27,1018.07,2005.03,3404.53,3188.00,3458.30,500.14,485.67,11.63,0000 0000 0000 0000 000000
2014-07-11 08:05:24,0.00,0.24,0.00,30.34,35.04,37.23,9.31,36.35,1018.08,2005.04,3404.53,3188.00,3458.37,500.16,485.33,11.67,0000 0000 0000 0000 000000
2014-07-11 08:10:25,-0.00,0.24,0.00,30.39,35.03,37.22,9.29,36.16,1018.08,2005.04,3404.65,3188.00,3458.32,500.23,485.65,11.71,0000 0000 0000 0000 000000
2014-07-11 08:15:26,0.00,0.24,0.00,30.43,35.03,37.22,9.34,36.24,1018.08,2005.06,3404.63,3188.00,3458.36,499.84,485.15,11.76,0000 0000 0000 0000 000000
2014-07-11 08:20:27,-0.01,0.24,0.00,30.46,35.03,37.23,9.37,36.35,1018.08,2005.04,3404.76,3188.01,3458.32,499.91,485.12,11.80,0000 0000 0000 0000 000000
2014-07-11 08:25:28,0.01,0.24,0.00,30.51,35.04,37.23,9.29,35.98,1018.08,2005.10,3404.71,3188.01,3458.39,500.24,485.32,11.84,0000 0000 0000 0000 000000
2014-07-11 08:30:30,-0.01,0.24,0.00,30.55,35.05,37.24,9.27,35.85,1018.08,2005.05,3404.62,3188.00,3458.29,499.98,485.03,11.88,0000 0000 0000 0000 000000
2014-07-11 08:35:30,0.01,0.24,0.00,30.56,35.05,37.25,9.34,36.05,1018.09,2005.02,3404.42,3188.00,3458.07,500.23,485.24,11.92,0000 0000 0000 0000 000000
2014-07-11 08:40:32,0.00,0.24,0.00,30.59,35.05,37.26,9.30,36.25,1018.08,2005.02,3404.24,3188.00,3458.05,499.61,484.72,11.96,0000 0000 0000 0000 000000
2014-07-11 08:45:33,0.00,0.24,0.00,30.61,35.07,37.27,9.32,35.99,1018.09,2005.05,3404.23,3188.00,3458.03,499.94,484.55,12.01,0000 0000 0000 0000 000000
2014-07-11 08:50:34,-0.00,0.24,0.00,30.64,35.07,37.29,9.28,35.90,1018.09,2005.02,3404.11,3188.00,3458.01,499.64,484.60,12.05,0000 0000 0000 0000 000000
2014-07-11 08:55:35,0.00,0.24,0.00,30.66,35.10,37.30,9.31,36.13,1018.08,2005.00,3404.02,3187.97,3458.00,499.93,484.81,12.09,0000 0000 0000 0000 000000
2014-07-11 09:00:36,0.00,0.24,0.00,30.68,35.10,37.33,9.29,36.38,1018.08,2005.00,3404.00,3187.87,3458.00,499.97,484.77,12.13,0000 0000 0000 0000 000000
2014-07-11 09:05:37,0.01,0.24,0.00,30.71,35.12,37.36,9.29,36.38,1018.08,2005.00,3404.00,3187.54,3457.94,500.08,484.84,12.17,0000 0000 0000 0000 000000
2014-07-11 09:10:38,0.01,0.24,0.00,30.73,35.12,37.38,9.37,37.78,1018.08,2005.00,3403.95,3187.23,3457.84,500.23,484.92,12.22,0000 0000 0000 0000 000000
2014-07-11 09:15:39,0.00,0.24,0.00,30.76,35.14,37.40,9.41,37.73,1018.08,2005.00,3403.95,3187.10,3457.73,500.37,484.93,12.26,0000 0000 0000 0000 000000
2014-07-11 09:20:40,0.00,0.24,0.00,30.80,35.15,37.45,9.26,37.60,1018.09,2005.00,3403.89,3187.06,3457.56,499.45,484.06,12.30,0000 0000 0000 0000 000000
2014-07-11 09:25:41,0.01,0.24,0.00,30.87,35.17,37.50,9.42,37.77,1018.11,2004.99,3403.59,3187.00,3457.23,500.50,484.98,12.34,0000 0000 0000 0000 000000
2014-07-11 09:30:42,0.00,0.24,0.00,30.96,35.19,37.51,9.34,37.79,1018.09,2004.97,3403.22,3187.00,3457.02,500.36,484.82,12.38,0000 0000 0000 0000 000000
2014-07-11 09:35:43,-0.00,0.24,0.00,31.01,35.21,37.50,9.31,37.51,1018.09,2004.89,3403.05,3186.96,3457.00,499.77,484.14,12.42,0000 0000 0000 0000 000000
2014-07-11 09:40:44,0.00,0.24,0.00,31.10,35.24,37.48,9.30,37.31,1018.09,2004.58,3402.93,3186.27,3456.51,499.97,484.04,12.47,0000 0000 0000 0000 000000
2014-07-11 09:45:45,-0.00,0.24,0.00,31.20,35.27,37.51,9.33,37.31,1018.08,2004.34,3402.23,3185.96,3456.00,500.37,484.37,12.51,0000 0000 0000 0000 000000
2014-07-11 09:50:46,0.04,0.24,0.00,31.26,35.30,37.54,9.26,37.08,1018.08,2004.12,3401.50,3185.23,3455.42,499.80,483.86,12.55,0000 0000 0000 0000 000000
2014-07-11 09:55:47,0.07,0.24,0.00,31.30,35.33,37.58,9.28,36.89,1018.08,2004.00,3399.96,3184.19,3454.23,500.14,483.83,12.59,0000 0000 0000 0000 000000
2014-07-11 10:00:48,0.06,0.25,0.00,31.34,35.36,37.63,9.28,36.90,1018.08,2004.00,3398.79,3183.44,3453.40,500.48,483.96,12.63,0000 0000 0000 0000 000000
2014-07-11 10:05:50,0.02,0.25,0.00,31.37,35.40,37.67,9.22,36.63,1018.08,2004.00,3398.06,3183.01,3453.00,499.71,483.36,12.68,0000 0000 0000 0000 000000
2014-07-11 10:10:51,0.01,0.25,0.00,31.39,35.43,37.70,9.30,36.94,1018.08,2003.98,3397.97,3182.89,3452.71,499.97,483.61,12.72,0000 0000 0000 0000 000000
2014-07-11 10:15:52,0.04,0.25,0.00,31.41,35.46,37.74,9.22,36.42,1018.08,2003.92,3397.17,3182.09,3452.04,500.13,483.85,12.76,0000 0000 0000 0000 000000
2014-07-11 10:20:53,-0.00,0.25,0.00,31.42,35.49,37.78,9.31,36.58,1018.08,2003.59,3396.39,3181.80,3451.50,499.98,483.82,12.80,0000 0000 0000 0000 000000
2014-07-11 10:25:55,-0.02,0.25,0.00,31.44,35.52,37.81,9.24,36.12,1018.10,2003.18,3396.00,3181.13,3451.01,499.33,482.99,12.84,0000 0000 0000 0000 000000
2014-07-11 10:30:56,0.01,0.25,0.00,31.43,35.55,37.84,9.25,36.02,1018.13,2003.08,3395.41,3180.99,3450.72,500.24,483.90,12.88,0000 0000 0000 0000 000000
2014-07-11 10:35:57,0.05,0.25,0.00,31.42,35.58,37.86,9.34,36.15,1018.26,2003.01,3394.46,3180.32,3450.03,500.19,483.86,12.93,0000 0000 0000 0000 000000
2014-07-11 10:40:58,0.03,0.25,0.00,31.41,35.60,37.89,9.31,36.17,1018.51,2003.00,3393.71,3179.87,3449.34,499.95,483.78,12.97,0000 0000 0000 0000 000000
2014-07-11 10:45:59,0.05,0.26,0.00,31.42,35.62,37.92,9.30,36.17,1018.55,2003.00,3392.66,3179.05,3448.66,500.21,483.87,13.01,0000 0000 0000 0000 000000
2014-07-11 10:51:00,0.06,0.26,0.00,31.45,35.65,37.93,9.31,35.89,1018.54,2002.99,3391.24,3178.18,3447.86,500.09,483.86,13.05,0000 0000 0000 0000 000000
2014-07-11 10:56:02,0.01,0.26,0.00,31.47,35.67,37.95,9.27,35.96,1018.57,2002.98,3390.97,3177.98,3447.14,500.02,483.79,13.09,0000 0000 0000 0000 000000
2014-07-11 11:01:03,0.03,0.26,0.00,31.47,35.69,37.98,9.24,35.86,1018.57,2002.95,3390.37,3177.62,3446.99,499.98,483.93,13.14,0000 0000 0000 0000 000000
2014-07-11 11:06:04,0.01,0.26,0.00,31.51,35.71,38.00,9.20,35.73,1018.50,2002.87,3390.00,3177.04,3446.49,499.67,483.56,13.18,0000 0000 0000 0000 000000
2014-07-11 11:11:05,-0.04,0.26,0.00,31.52,35.74,38.02,9.26,35.64,1018.54,2002.50,3389.86,3176.98,3446.02,499.75,483.48,13.22,0000 0000 0000 0000 000000
2014-07-11 11:16:06,-0.00,0.26,0.00,31.54,35.75,38.04,9.23,35.57,1018.57,2002.22,3389.40,3176.81,3446.00,499.68,483.40,13.26,0000 0000 0000 0000 000000
2014-07-11 11:21:07,0.01,0.26,0.00,31.57,35.78,38.06,9.25,35.85,1018.57,2002.08,3389.08,3176.39,3445.90,499.74,483.47,13.30,0000 0000 0000 0000 000000
2014-07-11 11:26:09,0.01,0.26,0.00,31.61,35.80,38.08,9.31,35.80,1018.57,2002.01,3389.00,3176.03,3445.38,499.99,483.65,13.34,0000 0000 0000 0000 000000
2014-07-11 11:31:10,0.01,0.26,0.00,31.60,35.82,38.10,9.23,35.93,1018.57,2002.00,3388.75,3175.99,3445.05,499.63,483.24,13.39,0000 0000 0000 0000 000000
2014-07-11 11:36:11,0.01,0.26,0.00,31.60,35.85,38.13,9.38,35.94,1018.56,2002.00,3388.11,3175.89,3444.98,500.30,483.72,13.43,0000 0000 0000 0000 000000
2014-07-11 11:41:12,0.02,0.26,0.00,31.60,35.87,38.15,9.35,35.68,1018.56,2002.00,3387.99,3175.38,3444.62,500.19,483.84,13.47,0000 0000 0000 0000 000000
2014-07-11 11:46:13,0.02,0.26,0.00,31.60,35.89,38.17,9.30,35.62,1018.52,2002.00,3387.72,3175.03,3444.09,500.07,483.84,13.51,0000 0000 0000 0000 000000
2014-07-11 11:51:15,0.00,0.26,0.00,31.60,35.91,38.19,9.27,35.53,1018.55,2001.97,3387.12,3175.00,3444.00,500.13,483.71,13.55,0000 0000 0000 0000 000000
2014-07-11 11:56:16,-0.00,0.26,0.00,31.59,35.92,38.21,9.24,35.44,1018.50,2001.90,3387.00,3174.97,3443.96,499.88,483.51,13.60,0000 0000 0000 0000 000000
2014-07-11 12:01:17,-0.00,0.26,0.00,31.56,35.95,38.23,9.33,35.44,1018.51,2001.71,3386.97,3174.62,3443.72,500.46,484.14,13.64,0000 0000 0000 0000 000000
2014-07-11 12:06:18,-0.00,0.26,0.00,31.54,35.95,38.25,9.24,35.36,1018.57,2001.52,3386.79,3174.33,3443.28,500.05,483.60,13.68,0000 0000 0000 0000 000000
2014-07-11 12:11:19,-0.01,0.26,0.00,31.54,35.97,38.26,9.29,35.33,1018.53,2001.21,3386.15,3174.02,3443.01,499.91,483.60,13.72,0000 0000 0000 0000 000000
2014-07-11 12:16:20,-0.01,0.26,0.00,31.52,35.98,38.26,9.35,35.57,1018.55,2001.15,3386.00,3174.00,3443.00,500.20,483.84,13.76,0000 0000 0000 0000 000000
2014-07-11 12:21:21,-0.01,0.26,0.00,31.52,35.99,38.27,9.30,35.55,1018.56,2001.09,3386.00,3174.00,3443.00,499.77,483.44,13.80,0000 0000 0000 0000 000000
2014-07-11 12:26:22,-0.00,0.26,0.00,31.52,36.00,38.28,9.22,35.39,1018.56,2001.02,3385.99,3173.96,3442.91,499.56,483.45,13.85,0000 0000 0000 0000 000000
2014-07-11 12:31:23,0.01,0.26,0.00,31.48,36.00,38.28,9.26,35.41,1018.57,2001.01,3385.94,3173.94,3442.76,499.74,483.32,13.89,0000 0000 0000 0000 000000
2014-07-11 12:36:24,0.02,0.26,0.00,31.44,36.01,38.31,9.33,35.31,1018.54,2001.01,3385.38,3173.75,3442.37,500.12,483.93,13.93,0000 0000 0000 0000 000000
2014-07-11 12:41:26,0.01,0.26,0.00,31.42,36.02,38.30,9.26,35.30,1018.49,2001.00,3385.16,3173.61,3442.13,499.85,483.67,13.97,0000 0000 0000 0000 000000
2014-07-11 12:46:27,0.00,0.27,0.00,31.41,36.02,38.31,9.28,35.30,1018.52,2001.00,3385.05,3173.37,3442.06,500.12,483.96,14.01,0000 0000 0000 0000 000000
2014-07-11 12:51:28,0.01,0.27,0.00,31.39,36.02,38.30,9.22,35.18,1018.55,2001.00,3385.01,3173.18,3442.01,499.81,483.99,14.06,0000 0000 0000 0000 000000
2014-07-11 12:56:29,-0.00,0.27,0.00,31.36,36.02,38.30,9.31,35.38,1018.51,2001.00,3385.00,3173.18,3442.00,500.20,484.12,14.10,0000 0000 0000 0000 000000
2014-07-11 13:01:30,0.00,0.27,0.00,31.33,36.01,38.30,9.29,35.22,1018.51,2001.00,3385.00,3173.09,3442.00,500.13,484.06,14.14,0000 0000 0000 0000 000000